Vorticity
4 6 9 10 9 10 10 8 5 6 17 17 2 13 22 -1 21 18 34 33 34 6 8 20 -4 20 14 7 15 1 22 11 8 8 12 12 10 12 3 5 5 11 1 4 10 10 8
4 5 7 9 9 11 12 9 6 6 7 11 10 9 -0 10 1 33 33 19 19 11 19 17 4 24 -28 34 5 20 6 12 8 8 10 12 10 -1 10 8 -2 9 3 9 8 9 8
5 3 6 6 10 9 13 10 8 5 5 21 6 7 4 11 6 36 25 2 4 12 6 9 14 4 -9 33 6 6 11 12 10 10 10 10 10 1 6 9 4 7 8 9 7 6 7
18 5 4 7 8 8 13 13 10 6 4 18 11 12 23 17 3 22 40 -11 22 5 17 16 8 -3 7 12 6 9 11 10 9 10 12 11 7 13 9 2 3 9 7 3 5 3 3
12 12 5 6 7 8 9 13 11 12 4 7 8 9 11 3 2 41 24 -0 -9 21 14 17 -3 11 23 5 7 9 9 9 8 10 13 11 5 14 7 12 -0 4 27 1 9 4 -1
13 13 8 5 6 7 8 11 14 14 7 6 4 11 21 15 19 25 5 6 3 -1 -0 -3 20 -3 8 5 1 8 8 10 8 7 11 11 6 10 7 7 1 9 10 11 -3 9 8
7 13 17 7 6 5 7 9 11 13 16 4 7 7 10 7 17 15 40 18 6 29 37 43 42 47 10 5 7 9 10 5 7 6 7 12 12 10 5 6 13 2 8 1 16 11 3
4 8 12 19 6 7 6 6 8 11 17 15 -0 6 7 15 4 9 30 15 16 10 8 5 11 14 -2 10 6 6 7 5 4 5 4 6 11 8 6 6 4 12 8 10 7 6 7
3 4 8 13 18 6 6 6 7 9 10 21 17 -2 6 -9 -15 -17 -3 -5 5 8 2 18 13 -2 8 8 8 8 7 12 8 8 7 -3 8 7 7 9 6 10 8 8 2 3 3
4 4 5 7 15 14 6 6 6 7 10 11 22 20 9 -3 -9 -5 -18 -24 -3 -1 -8 13 -7 7 18 12 5 9 12 5 3 11 8 7 8 6 5 8 7 7 6 5 4 9 9
6 4 4 4 9 14 13 6 6 5 7 10 11 19 14 12 19 12 4 13 11 19 -2 7 6 -1 17 40 6 12 7 17 15 5 -3 16 7 7 6 8 6 9 5 4 7 8 12
7 6 5 4 4 11 14 13 7 7 5 7 10 8 14 12 13 9 10 7 3 9 4 10 19 14 5 9 11 5 10 16 8 -0 20 14 6 4 7 7 7 7 7 7 11 14 21
6 7 6 4 4 5 11 14 13 8 8 5 6 11 11 11 17 17 18 20 -2 24 -1 7 11 16 17 11 8 11 11 2 6 5 10 7 5 9 8 9 8 8 7 11 11 12 1
7 7 7 6 4 4 6 11 13 16 9 9 5 5 8 13 7 19 21 11 11 25 32 10 5 9 9 4 8 3 7 14 5 16 -2 4 11 6 11 5 6 11 6 6 9 7 -1
7 7 7 7 5 4 4 8 8 13 18 10 9 6 7 12 14 15 5 25 21 -4 13 7 -0 4 7 14 12 6 13 13 16 8 4 10 19 2 9 8 5 14 7 10 5 13 15
7 8 7 7 6 4 3 3 8 11 15 17 12 9 6 7 10 12 20 28 18 8 2 10 10 13 6 3 8 11 14 8 13 10 9 15 13 9 5 4 5 -0 9 11 8 6 11
6 8 7 6 7 4 4 2 2 6 12 16 15 13 8 8 6 12 17 13 7 7 11 10 17 12 10 6 8 10 16 10 13 12 10 8 11 25 4 13 15 12 5 9 9 5 6
6 7 8 8 6 7 6 4 4 6 6 16 13 17 14 11 12 10 11 10 9 7 6 6 7 8 10 8 6 8 10 14 10 11 15 5 10 11 13 4 12 9 -0 6 2 17 5
5 7 8 10 10 8 8 7 5 5 6 8 15 11 20 14 12 9 7 7 6 5 6 5 11 6 5 2 8 7 5 4 6 6 4 5 7 12 15 23 15 5 9 11 6 -0 8
6 7 8 9 6 7 4 5 6 6 6 6 9 12 22 5 13 13 9 7 8 7 7 5 8 8 8 10 9 6 5 7 3 5 4 10 10 1 -11 -12 -8 -9 -6 -2 11 6 -8
6 6 7 8 7 7 8 8 5 5 5 4 6 6 12 5 11 12 13 11 9 6 9 7 10 6 6 6 8 10 7 4 8 6 7 13 8 4 4 8 5 2 2 4 1 5 -18
5 6 7 7 6 8 6 3 -0 -2 1 8 5 6 5 5 11 11 10 7 12 10 5 7 10 6 7 6 1 -5 -3 2 12 10 10 9 7 -4 3 33 39 26 19 19 24 21 11
5 5 6 7 8 6 2 3 -0 -2 5 10 6 8 8 5 7 10 10 8 4 10 18 16 11 8 9 10 6 6 4 5 1 2 -0 5 11 -4 34 -3 -2 63 21 43 34 18 20
5 6 6 6 6 7 5 3 3 1 4 10 13 13 11 10 8 10 7 17 7 9 10 11 10 10 8 10 8 8 6 7 9 7 5 -1 2 14 -3 42 21 -9 -19 -13 23 20 13
5 5 5 6 8 7 4 5 6 2 6 11 12 15 11 13 13 16 20 -5 11 8 4 10 10 12 9 12 15 33 30 33 32 34 29 17 12 1 4 3 -12 54 15 6 2 28 31
5 6 6 6 6 4 3 4 6 3 5 11 11 12 12 12 6 8 18 22 12 3 6 16 19 20 9 6 15 14 5 2 18 13 17 24 26 -9 14 10 2 -3 -19 28 1 15 -7
6 5 5 5 6 6 6 6 6 1 2 10 9 10 13 15 10 5 17 22 22 24 17 8 4 10 16 16 13 18 14 1 11 10 16 11 21 4 8 -4 10 10 13 7 24 -25 -15
7 7 7 6 6 6 7 7 7 3 5 14 4 9 12 11 13 22 -6 5 7 6 2 -1 3 25 25 22 9 11 14 9 9 -0 -0 4 14 12 19 1 31 -1 -28 1 -1 5 9
9 7 8 9 7 6 7 7 7 6 4 11 10 12 11 7 -3 7 3 19 21 38 23 25 13 -2 -4 2 -0 9 -7 -10 -12 -11 2 12 14 -15 -13 -16 -27 -23 2 2 4 12 11
Height
3114 3110 3105 3099 3093 3087 3082 3075 3069 3063 3055 3047 3040 3036 3029 3021 3013 3005 2997 2997 2998 3002 3008 3012 3017 3022 3026 3027 3033 3042 3050 3058 3063 3070 3076 3082 3088 3095 3099 3105 3112 3114 3119 3125 3129 3133 3136
3116 3112 3108 3101 3096 3089 3085 3078 3071 3067 3059 3052 3045 3040 3033 3026 3019 3011 3006 3006 3007 3010 3015 3019 3025 3029 3031 3033 3040 3047 3054 3060 3066 3073 3078 3085 3091 3097 3102 3107 3113 3114 3119 3125 3129 3132 3135
3119 3114 3110 3104 3099 3092 3087 3082 3075 3069 3065 3057 3052 3044 3039 3032 3027 3020 3016 3016 3016 3018 3022 3025 3030 3035 3038 3041 3047 3053 3059 3065 3070 3077 3082 3087 3094 3098 3103 3108 3114 3116 3120 3125 3129 3131 3134
3121 3116 3112 3107 3101 3096 3090 3085 3079 3073 3068 3063 3057 3049 3046 3039 3035 3030 3026 3026 3025 3026 3028 3032 3038 3043 3045 3049 3054 3059 3064 3069 3074 3079 3085 3090 3095 3101 3104 3107 3114 3117 3120 3124 3128 3131 3133
3124 3119 3114 3110 3104 3099 3093 3089 3083 3077 3073 3068 3062 3058 3053 3047 3042 3038 3033 3034 3035 3036 3036 3040 3046 3048 3052 3057 3062 3066 3069 3074 3078 3082 3087 3093 3098 3102 3106 3109 3115 3117 3118 3122 3126 3129 3131
3126 3121 3117 3112 3107 3102 3097 3093 3088 3082 3078 3074 3069 3065 3061 3055 3051 3048 3043 3043 3044 3046 3046 3048 3051 3057 3060 3064 3067 3071 3074 3078 3082 3086 3090 3095 3099 3103 3107 3110 3114 3116 3119 3122 3124 3128 3128
3130 3124 3119 3115 3110 3105 3100 3096 3092 3088 3083 3079 3076 3073 3070 3065 3060 3057 3054 3052 3054 3055 3054 3053 3056 3057 3063 3069 3073 3076 3079 3082 3086 3091 3094 3097 3102 3104 3109 3112 3115 3118 3120 3122 3123 3126 3126
3134 3129 3122 3118 3114 3108 3103 3099 3096 3092 3088 3085 3081 3080 3078 3074 3071 3067 3069 3063 3060 3062 3062 3065 3066 3068 3071 3075 3078 3081 3084 3088 3090 3094 3097 3101 3102 3106 3110 3112 3116 3118 3119 3121 3123 3124 3124
3139 3133 3127 3122 3117 3112 3106 3102 3099 3095 3092 3088 3086 3084 3083 3081 3079 3078 3076 3073 3072 3072 3069 3073 3076 3078 3079 3083 3083 3086 3089 3090 3093 3096 3099 3101 3105 3107 3110 3113 3116 3117 3119 3121 3123 3122 3122
3141 3137 3131 3125 3121 3116 3110 3105 3101 3098 3095 3092 3089 3087 3086 3085 3085 3083 3081 3078 3078 3077 3078 3086 3085 3087 3087 3087 3089 3090 3092 3096 3095 3099 3101 3104 3106 3109 3111 3115 3116 3117 3119 3120 3120 3121 3121
3144 3140 3135 3129 3124 3119 3114 3110 3105 3101 3097 3095 3092 3090 3088 3087 3086 3084 3083 3080 3079 3080 3085 3094 3091 3091 3089 3091 3093 3093 3096 3097 3099 3100 3105 3107 3108 3110 3113 3114 3115 3117 3117 3119 3119 3118 3118
3147 3142 3138 3133 3128 3123 3117 3114 3109 3105 3101 3097 3094 3091 3090 3088 3086 3085 3083 3081 3082 3084 3094 3097 3095 3094 3094 3094 3095 3096 3098 3101 3102 3103 3105 3107 3109 3111 3113 3114 3115 3116 3117 3117 3116 3116 3115
3149 3145 3141 3137 3132 3127 3122 3117 3113 3109 3105 3101 3097 3094 3091 3089 3087 3085 3084 3083 3084 3085 3100 3101 3098 3097 3097 3097 3098 3099 3100 3101 3102 3106 3106 3109 3111 3112 3114 3115 3115 3115 3116 3116 3117 3116 3114
3149 3146 3143 3139 3135 3131 3127 3122 3116 3112 3108 3105 3101 3098 3095 3091 3089 3086 3085 3085 3086 3097 3097 3100 3100 3101 3100 3101 3102 3102 3103 3103 3104 3105 3106 3108 3113 3112 3112 3114 3114 3114 3116 3116 3120 3118 3112
3149 3146 3143 3140 3137 3134 3129 3125 3120 3115 3111 3108 3105 3102 3099 3096 3092 3090 3090 3087 3094 3098 3100 3101 3103 3103 3103 3103 3104 3104 3105 3105 3106 3107 3109 3109 3109 3111 3112 3112 3115 3114 3115 3116 3115 3115 3114
3149 3146 3143 3140 3138 3135 3132 3128 3124 3119 3114 3110 3107 3104 3102 3099 3097 3095 3093 3091 3095 3098 3100 3102 3102 3104 3105 3106 3106 3106 3106 3107 3107 3107 3107 3109 3110 3111 3111 3112 3113 3113 3115 3115 3114 3116 3113
3148 3146 3143 3140 3138 3136 3133 3130 3126 3122 3117 3113 3110 3107 3105 3102 3101 3099 3097 3097 3099 3100 3101 3102 3102 3103 3105 3105 3106 3106 3107 3108 3107 3107 3108 3108 3110 3112 3112 3112 3112 3113 3112 3113 3114 3114 3113
3146 3145 3143 3140 3137 3135 3133 3131 3128 3125 3120 3116 3112 3110 3107 3105 3105 3102 3101 3101 3103 3104 3103 3104 3105 3106 3106 3105 3105 3105 3107 3108 3108 3108 3108 3109 3109 3109 3111 3111 3111 3111 3111 3112 3113 3113 3112
3143 3143 3141 3140 3137 3135 3133 3131 3128 3126 3122 3118 3114 3111 3109 3108 3106 3105 3105 3105 3105 3105 3105 3105 3105 3106 3106 3107 3107 3106 3106 3107 3107 3108 3108 3108 3108 3108 3109 3111 3108 3106 3106 3107 3108 3108 3105
3141 3140 3139 3137 3136 3134 3132 3130 3128 3126 3123 3120 3116 3114 3112 3109 3108 3107 3106 3106 3106 3106 3105 3106 3106 3107 3107 3107 3107 3106 3106 3106 3106 3106 3106 3106 3105 3105 3105 3104 3104 3102 3101 3102 3102 3101 3095
3138 3137 3135 3134 3133 3132 3130 3129 3127 3125 3123 3121 3118 3117 3114 3111 3109 3107 3106 3106 3105 3105 3106 3106 3106 3105 3105 3107 3107 3106 3106 3106 3106 3105 3104 3104 3102 3100 3100 3099 3096 3094 3093 3094 3091 3090 3087
3133 3133 3133 3131 3129 3128 3128 3127 3126 3124 3121 3120 3118 3116 3113 3111 3109 3108 3106 3104 3103 3103 3104 3104 3104 3104 3104 3103 3104 3104 3105 3105 3104 3102 3102 3101 3100 3096 3093 3092 3088 3084 3084 3083 3082 3081 3078
3128 3128 3128 3128 3127 3125 3124 3123 3122 3121 3119 3116 3115 3113 3111 3110 3107 3106 3105 3103 3102 3102 3102 3101 3101 3101 3101 3102 3100 3100 3100 3100 3100 3099 3099 3098 3097 3096 3085 3084 3081 3076 3073 3071 3074 3074 3074
3121 3122 3122 3123 3122 3122 3121 3119 3117 3117 3115 3113 3111 3109 3107 3106 3104 3103 3101 3100 3099 3099 3098 3098 3098 3098 3098 3097 3096 3095 3094 3092 3091 3091 3092 3093 3094 3094 3088 3085 3080 3071 3070 3070 3071 3070 3066
3114 3115 3115 3116 3117 3116 3116 3116 3114 3112 3111 3109 3106 3105 3103 3102 3101 3100 3098 3097 3096 3095 3095 3094 3094 3094 3093 3093 3092 3090 3088 3086 3082 3081 3082 3085 3092 3094 3088 3084 3077 3071 3068 3070 3069 3068 3064
3107 3108 3108 3108 3109 3110 3109 3109 3110 3108 3106 3104 3102 3100 3099 3098 3097 3096 3094 3093 3092 3092 3091 3090 3089 3088 3089 3088 3089 3087 3085 3084 3082 3079 3079 3080 3081 3087 3089 3088 3077 3068 3068 3069 3069 3066 3065
3099 3100 3101 3102 3102 3103 3104 3103 3103 3103 3101 3099 3097 3096 3096 3094 3092 3092 3090 3089 3088 3087 3086 3086 3086 3085 3085 3084 3085 3085 3083 3082 3080 3077 3075 3077 3079 3078 3082 3084 3070 3067 3067 3066 3067 3069 3061
3092 3093 3093 3094 3095 3095 3096 3097 3097 3097 3096 3094 3092 3091 3092 3090 3088 3086 3086 3085 3084 3084 3083 3083 3084 3080 3079 3080 3081 3081 3078 3077 3075 3075 3074 3075 3073 3073 3077 3078 3067 3063 3063 3065 3061 3056 3052
3083 3084 3086 3087 3088 3087 3087 3088 3089 3089 3089 3087 3087 3084 3085 3086 3085 3082 3080 3080 3079 3078 3078 3077 3079 3078 3077 3077 3077 3076 3076 3074 3072 3072 3070 3070 3068 3067 3067 3063 3061 3059 3058 3056 3052 3048 3045